Time,TemperatureF,DewpointF,PressureIn,WindDirection,WindDirectionDegrees,WindSpeedMPH,WindSpeedGustMPH,Humidity,HourlyPrecipIn,Conditions,Clouds,dailyrainin,SoftwareType,DateUTC
2013-02-08 00:00:00,53.2,48.8,29.98,WSW,248,3.0,11.0,85,0.00,,---,0.00,VWS V14.01,2013-02-08 08:00:00,
2013-02-08 00:08:00,53.0,48.0,29.98,West,275,2.0,9.0,84,0.00,,,0.00,weatherlink.com 1.10,2013-02-08 08:08:00,
2013-02-08 00:15:00,53.0,47.7,29.98,WSW,248,4.0,9.0,82,0.00,,---,0.00,VWS V14.01,2013-02-08 08:15:00,
2013-02-08 00:23:00,52.8,47.0,29.98,WSW,249,3.0,10.0,81,0.00,,,0.00,weatherlink.com 1.10,2013-02-08 08:23:00,
2013-02-08 00:30:00,52.6,47.3,29.98,WSW,248,3.0,10.0,82,0.00,,---,0.00,VWS V14.01,2013-02-08 08:30:00,
2013-02-08 00:38:00,52.2,47.0,29.98,WSW,250,0.0,5.0,82,0.00,,,0.00,weatherlink.com 1.10,2013-02-08 08:38:00,
2013-02-08 00:45:00,51.9,46.9,29.97,WSW,248,2.0,7.0,83,0.00,,---,0.00,VWS V14.01,2013-02-08 08:45:00,
2013-02-08 00:53:00,52.3,47.0,29.97,West,276,3.0,12.0,81,0.00,,,0.00,weatherlink.com 1.10,2013-02-08 08:53:00,
2013-02-08 01:00:00,52.4,46.8,29.98,WSW,248,4.0,12.0,81,0.00,,---,0.00,VWS V14.01,2013-02-08 09:00:00,
2013-02-08 01:08:00,52.3,46.0,29.98,SW,232,6.0,11.0,79,0.00,,,0.00,weatherlink.com 1.10,2013-02-08 09:08:00,
2013-02-08 01:15:00,52.3,45.7,29.98,WSW,248,5.0,13.0,78,0.00,,---,0.00,VWS V14.01,2013-02-08 09:15:00,
2013-02-08 01:23:00,52.4,46.0,29.98,WSW,254,3.0,14.0,78,0.00,,,0.00,weatherlink.com 1.10,2013-02-08 09:23:00,
2013-02-08 01:30:00,52.0,45.7,29.98,WSW,248,4.0,14.0,79,0.00,,---,0.00,VWS V14.01,2013-02-08 09:30:00,
2013-02-08 01:38:00,51.8,45.0,29.98,West,262,2.0,8.0,78,0.00,,,0.00,weatherlink.com 1.10,2013-02-08 09:38:00,
2013-02-08 01:45:00,51.7,45.1,29.98,WSW,248,3.0,8.0,78,0.00,,---,0.00,VWS V14.01,2013-02-08 09:45:00,
2013-02-08 01:53:00,51.5,45.0,29.98,WSW,243,3.0,7.0,79,0.00,,,0.00,weatherlink.com 1.10,2013-02-08 09:53:00,
2013-02-08 02:00:00,51.3,45.0,29.98,West,270,2.0,7.0,79,0.00,,---,0.00,VWS V14.01,2013-02-08 10:00:00,
2013-02-08 02:08:00,51.4,45.0,29.98,West,259,1.0,9.0,79,0.00,,,0.00,weatherlink.com 1.10,2013-02-08 10:08:00,
2013-02-08 02:15:00,51.3,44.7,29.97,WSW,248,3.0,13.0,78,0.00,,---,0.00,VWS V14.01,2013-02-08 10:15:00,
2013-02-08 02:23:00,51.4,44.0,29.97,WSW,254,2.0,13.0,76,0.00,,,0.00,weatherlink.com 1.10,2013-02-08 10:23:00,
2013-02-08 02:30:00,51.2,43.9,29.97,West,270,4.0,13.0,76,0.00,,---,0.00,VWS V14.01,2013-02-08 10:30:00,
2013-02-08 02:38:00,51.2,44.0,29.97,WSW,257,2.0,12.0,75,0.00,,,0.00,weatherlink.com 1.10,2013-02-08 10:38:00,
2013-02-08 02:45:00,51.1,43.8,29.97,WSW,248,3.0,12.0,76,0.00,,---,0.00,VWS V14.01,2013-02-08 10:45:00,
2013-02-08 02:53:00,51.1,43.0,29.97,WSW,240,2.0,13.0,74,0.00,,,0.00,weatherlink.com 1.10,2013-02-08 10:53:00,
2013-02-08 03:00:00,51.2,42.5,29.96,West,270,5.0,13.0,72,0.00,,---,0.00,VWS V14.01,2013-02-08 11:00:00,
2013-02-08 03:08:00,50.9,43.0,29.96,SSW,213,4.0,12.0,73,0.00,,,0.00,weatherlink.com 1.10,2013-02-08 11:08:00,
2013-02-08 03:15:00,50.8,42.1,29.96,West,270,4.0,12.0,72,0.00,,---,0.00,VWS V14.01,2013-02-08 11:15:00,
2013-02-08 03:23:00,50.6,42.0,29.96,SW,233,5.0,10.0,73,0.00,,,0.00,weatherlink.com 1.10,2013-02-08 11:23:00,
2013-02-08 03:30:00,50.7,42.0,29.96,West,270,4.0,13.0,72,0.00,,---,0.00,VWS V14.01,2013-02-08 11:30:00,
2013-02-08 03:38:00,50.6,42.0,29.96,WSW,254,3.0,10.0,72,0.00,,,0.00,weatherlink.com 1.10,2013-02-08 11:38:00,
2013-02-08 03:45:00,50.3,42.0,29.96,WSW,248,3.0,10.0,73,0.00,,---,0.00,VWS V14.01,2013-02-08 11:45:00,
2013-02-08 03:53:00,50.0,42.0,29.96,WSW,238,4.0,6.0,74,0.00,,,0.00,weatherlink.com 1.10,2013-02-08 11:53:00,
2013-02-08 04:00:00,49.8,41.9,29.96,WSW,248,2.0,6.0,74,0.00,,---,0.00,VWS V14.01,2013-02-08 12:00:00,
2013-02-08 04:08:00,49.5,42.0,29.96,SW,231,6.0,8.0,74,0.00,,,0.00,weatherlink.com 1.10,2013-02-08 12:08:00,
2013-02-08 04:15:00,49.5,41.6,29.96,WSW,248,2.0,8.0,74,0.00,,---,0.00,VWS V14.01,2013-02-08 12:15:00,
2013-02-08 04:23:00,49.4,42.0,29.96,WSW,245,0.0,4.0,75,0.00,,,0.00,weatherlink.com 1.10,2013-02-08 12:23:00,
2013-02-08 04:30:00,49.7,42.1,29.96,WSW,248,1.0,7.0,75,0.00,,---,0.00,VWS V14.01,2013-02-08 12:30:00,
2013-02-08 04:38:00,50.4,43.0,29.95,WSW,242,4.0,7.0,75,0.00,,,0.00,weatherlink.com 1.10,2013-02-08 12:38:00,
2013-02-08 04:45:00,50.7,42.7,29.96,WSW,248,4.0,8.0,74,0.00,,---,0.00,VWS V14.01,2013-02-08 12:45:00,
2013-02-08 04:53:00,50.9,43.0,29.96,WSW,257,3.0,9.0,74,0.00,,,0.00,weatherlink.com 1.10,2013-02-08 12:53:00,
2013-02-08 05:00:00,51.0,43.0,29.96,WSW,248,3.0,9.0,74,0.00,,---,0.00,VWS V14.01,2013-02-08 13:00:00,
2013-02-08 05:08:00,51.1,43.0,29.95,SW,227,5.0,10.0,74,0.00,,,0.00,weatherlink.com 1.10,2013-02-08 13:08:00,
2013-02-08 05:15:00,51.1,43.1,29.95,WSW,248,4.0,10.0,74,0.00,,---,0.00,VWS V14.01,2013-02-08 13:15:00,
2013-02-08 05:23:00,51.1,43.0,29.95,WSW,248,3.0,9.0,75,0.00,,,0.00,weatherlink.com 1.10,2013-02-08 13:23:00,
2013-02-08 05:30:00,51.1,43.5,29.95,WSW,248,4.0,11.0,75,0.00,,---,0.00,VWS V14.01,2013-02-08 13:30:00,
2013-02-08 05:38:00,51.3,43.0,29.96,WSW,241,3.0,12.0,73,0.00,,,0.00,weatherlink.com 1.10,2013-02-08 13:38:00,
2013-02-08 05:45:00,51.3,42.6,29.96,WSW,248,4.0,12.0,72,0.00,,---,0.00,VWS V14.01,2013-02-08 13:45:00,
2013-02-08 05:53:00,51.5,42.0,29.96,West,281,3.0,12.0,70,0.00,,,0.00,weatherlink.com 1.10,2013-02-08 13:53:00,
2013-02-08 06:00:00,51.4,42.3,29.96,WSW,248,5.0,12.0,71,0.00,,---,0.00,VWS V14.01,2013-02-08 14:00:00,
2013-02-08 06:08:00,51.2,42.0,29.96,West,263,2.0,8.0,72,0.00,,,0.00,weatherlink.com 1.10,2013-02-08 14:08:00,
2013-02-08 06:15:00,51.1,42.4,29.97,West,270,4.0,10.0,72,0.00,,---,0.00,VWS V14.01,2013-02-08 14:15:00,
2013-02-08 06:23:00,51.0,42.0,29.97,WSW,253,4.0,9.0,72,0.00,,,0.00,weatherlink.com 1.10,2013-02-08 14:23:00,
2013-02-08 06:30:00,51.1,42.4,29.97,West,270,4.0,10.0,72,0.00,,---,0.00,VWS V14.01,2013-02-08 14:30:00,
2013-02-08 06:38:00,51.0,43.0,29.97,West,262,1.0,5.0,74,0.00,,,0.00,weatherlink.com 1.10,2013-02-08 14:38:00,
2013-02-08 06:45:00,50.8,43.9,29.97,WSW,248,2.0,7.0,77,0.00,,---,0.00,VWS V14.01,2013-02-08 14:45:00,
2013-02-08 06:54:00,50.7,44.0,29.97,West,275,2.0,8.0,78,0.00,,,0.00,weatherlink.com 1.10,2013-02-08 14:54:00,
2013-02-08 07:00:00,50.6,44.3,29.97,West,270,2.0,8.0,79,0.00,,---,0.00,VWS V14.01,2013-02-08 15:00:00,
2013-02-08 07:09:00,50.5,44.0,29.98,WSW,257,3.0,7.0,79,0.00,,,0.00,weatherlink.com 1.10,2013-02-08 15:09:00,
2013-02-08 07:15:00,50.7,44.1,29.98,WSW,248,3.0,10.0,78,0.00,,---,0.00,VWS V14.01,2013-02-08 15:15:00,
2013-02-08 07:24:00,51.0,44.0,29.98,West,272,4.0,8.0,77,0.00,,,0.00,weatherlink.com 1.10,2013-02-08 15:24:00,
2013-02-08 07:30:00,51.2,44.6,29.98,WSW,248,3.0,8.0,78,0.00,,---,0.00,VWS V14.01,2013-02-08 15:30:00,
2013-02-08 07:39:00,51.3,44.0,29.98,WSW,246,1.0,8.0,77,0.00,,,0.00,weatherlink.com 1.10,2013-02-08 15:39:00,
2013-02-08 07:45:00,51.5,44.5,29.98,WSW,248,3.0,13.0,77,0.00,,---,0.00,VWS V14.01,2013-02-08 15:45:00,
2013-02-08 07:54:00,51.8,45.0,29.98,SW,232,6.0,9.0,77,0.00,,,0.00,weatherlink.com 1.10,2013-02-08 15:54:00,
2013-02-08 08:00:00,52.1,44.8,29.98,WSW,248,4.0,10.0,76,0.00,,---,0.00,VWS V14.01,2013-02-08 16:00:00,
2013-02-08 08:09:00,52.3,45.0,29.98,WSW,240,8.0,10.0,77,0.00,,,0.00,weatherlink.com 1.10,2013-02-08 16:09:00,
2013-02-08 08:15:00,52.4,44.7,29.98,WSW,248,5.0,10.0,75,0.00,,---,0.00,VWS V14.01,2013-02-08 16:15:00,
2013-02-08 08:24:00,52.6,45.0,29.98,WSW,248,2.0,8.0,76,0.00,,,0.00,weatherlink.com 1.10,2013-02-08 16:24:00,
2013-02-08 08:30:00,52.6,44.9,29.98,WSW,248,3.0,9.0,75,0.00,,---,0.00,VWS V14.01,2013-02-08 16:30:00,
2013-02-08 08:39:00,52.5,45.0,29.98,WSW,244,4.0,8.0,75,0.00,,,0.00,weatherlink.com 1.10,2013-02-08 16:39:00,
2013-02-08 08:45:00,52.6,44.9,29.98,WSW,248,3.0,8.0,75,0.00,,---,0.00,VWS V14.01,2013-02-08 16:45:00,
2013-02-08 08:54:00,53.0,45.0,29.98,WSW,256,4.0,9.0,73,0.00,,,0.00,weatherlink.com 1.10,2013-02-08 16:54:00,
2013-02-08 09:00:00,53.3,44.5,29.98,WSW,248,3.0,9.0,72,0.00,,---,0.00,VWS V14.01,2013-02-08 17:00:00,
2013-02-08 09:09:00,54.1,45.0,29.97,WSW,246,6.0,10.0,70,0.00,,,0.00,weatherlink.com 1.10,2013-02-08 17:09:00,
2013-02-08 09:15:00,54.6,45.0,29.97,WSW,248,5.0,10.0,70,0.00,,---,0.00,VWS V14.01,2013-02-08 17:15:00,
2013-02-08 09:24:00,55.4,45.0,29.97,SW,236,4.0,9.0,69,0.00,,,0.00,weatherlink.com 1.10,2013-02-08 17:24:00,
2013-02-08 09:30:00,55.3,44.5,29.97,WSW,248,5.0,15.0,67,0.00,,---,0.00,VWS V14.01,2013-02-08 17:30:00,
2013-02-08 09:39:00,55.8,45.0,29.96,South,182,4.0,12.0,68,0.00,,,0.00,weatherlink.com 1.10,2013-02-08 17:39:00,
2013-02-08 09:45:00,56.1,44.9,29.97,WSW,248,5.0,12.0,66,0.00,,---,0.00,VWS V14.01,2013-02-08 17:45:00,
2013-02-08 09:54:00,56.4,44.0,29.96,SW,224,6.0,12.0,64,0.00,,,0.00,weatherlink.com 1.10,2013-02-08 17:54:00,
2013-02-08 10:00:00,56.7,45.1,29.96,SW,225,6.0,13.0,65,0.00,,---,0.00,VWS V14.01,2013-02-08 18:00:00,
2013-02-08 10:09:00,57.7,45.0,29.97,SW,222,9.0,12.0,64,0.00,,,0.00,weatherlink.com 1.10,2013-02-08 18:09:00,
2013-02-08 10:15:00,57.7,45.2,29.97,SSW,202,5.0,12.0,63,0.00,,---,0.00,VWS V14.01,2013-02-08 18:15:00,
2013-02-08 10:30:00,50.4,44.5,29.99,WNW,292,10.0,19.0,80,0.03,,---,0.03,VWS V14.01,2013-02-08 18:30:00,
2013-02-08 10:39:00,47.8,45.0,29.99,WNW,291,3.0,13.0,88,0.07,,,0.07,weatherlink.com 1.10,2013-02-08 18:39:00,
2013-02-08 10:56:00,47.8,46.0,29.98,WNW,291,0.0,3.0,92,0.08,,,0.08,weatherlink.com 1.10,2013-02-08 18:56:00,
2013-02-08 11:00:00,47.9,45.4,29.98,WNW,291,1.0,10.0,91,0.08,,---,0.08,VWS V14.01,2013-02-08 19:00:00,
2013-02-08 11:09:00,48.4,46.0,29.97,South,191,0.0,3.0,92,0.08,,,0.08,weatherlink.com 1.10,2013-02-08 19:09:00,
2013-02-08 11:15:00,49.1,46.6,29.97,SSW,202,1.0,4.0,91,0.08,,---,0.08,VWS V14.01,2013-02-08 19:15:00,
2013-02-08 11:24:00,50.5,47.0,29.96,South,186,3.0,6.0,89,0.07,,,0.08,weatherlink.com 1.10,2013-02-08 19:24:00,
2013-02-08 11:30:00,50.5,46.2,29.97,South,180,2.0,6.0,85,0.08,,---,0.08,VWS V14.01,2013-02-08 19:30:00,
2013-02-08 11:39:00,51.0,47.0,29.96,South,171,2.0,7.0,85,0.00,,,0.08,weatherlink.com 1.10,2013-02-08 19:39:00,
2013-02-08 11:45:00,51.0,46.3,29.95,South,180,3.0,8.0,84,0.05,,---,0.08,VWS V14.01,2013-02-08 19:45:00,
2013-02-08 11:54:00,51.1,47.0,29.95,South,174,4.0,8.0,85,0.00,,,0.08,weatherlink.com 1.10,2013-02-08 19:54:00,
2013-02-08 12:00:00,51.0,46.7,29.94,South,180,4.0,10.0,85,0.00,,---,0.08,VWS V14.01,2013-02-08 20:00:00,
2013-02-08 12:09:00,50.9,48.0,29.94,SW,236,2.0,12.0,88,0.00,,,0.08,weatherlink.com 1.10,2013-02-08 20:09:00,
2013-02-08 12:15:00,50.7,46.7,29.94,SSW,202,4.0,12.0,86,0.00,,---,0.08,VWS V14.01,2013-02-08 20:15:00,
2013-02-08 12:24:00,51.2,47.0,29.93,SSW,198,7.0,11.0,85,0.00,,,0.08,weatherlink.com 1.10,2013-02-08 20:24:00,
2013-02-08 12:30:00,51.3,47.0,29.93,SSW,202,4.0,13.0,85,0.00,,---,0.08,VWS V14.01,2013-02-08 20:30:00,
2013-02-08 12:39:00,50.6,47.0,29.93,WSW,239,4.0,9.0,86,0.01,,,0.09,weatherlink.com 1.10,2013-02-08 20:39:00,
2013-02-08 12:45:00,50.5,47.1,29.93,SW,225,3.0,9.0,88,0.01,,---,0.09,VWS V14.01,2013-02-08 20:45:00,
2013-02-08 12:55:00,50.6,47.0,29.92,WSW,238,2.0,6.0,87,0.02,,,0.10,weatherlink.com 1.10,2013-02-08 20:55:00,
2013-02-08 13:00:00,50.8,46.2,29.92,SW,225,2.0,6.0,84,0.02,,---,0.10,VWS V14.01,2013-02-08 21:00:00,
2013-02-08 13:09:00,51.7,47.0,29.91,WSW,238,1.0,7.0,84,0.02,,,0.10,weatherlink.com 1.10,2013-02-08 21:09:00,
2013-02-08 13:15:00,52.1,47.4,29.91,SW,225,2.0,7.0,84,0.02,,---,0.10,VWS V14.01,2013-02-08 21:15:00,
2013-02-08 13:25:00,52.5,47.0,29.90,West,279,10.0,13.0,80,0.02,,,0.10,weatherlink.com 1.10,2013-02-08 21:25:00,
2013-02-08 13:30:00,52.8,46.8,29.90,WSW,248,5.0,13.0,80,0.02,,---,0.10,VWS V14.01,2013-02-08 21:30:00,
2013-02-08 13:40:00,53.2,46.0,29.90,WSW,256,11.0,18.0,77,0.01,,,0.10,weatherlink.com 1.10,2013-02-08 21:40:00,
2013-02-08 13:45:00,53.2,46.5,29.90,WSW,248,7.0,18.0,78,0.02,,---,0.10,VWS V14.01,2013-02-08 21:45:00,
2013-02-08 13:55:00,53.5,48.0,29.90,WSW,254,3.0,15.0,81,0.00,,,0.10,weatherlink.com 1.10,2013-02-08 21:55:00,
2013-02-08 14:00:00,54.6,46.5,29.89,WSW,248,6.0,15.0,74,0.01,,---,0.10,VWS V14.01,2013-02-08 22:00:00,
2013-02-08 14:10:00,55.4,46.0,29.89,SW,236,8.0,16.0,72,0.00,,,0.10,weatherlink.com 1.10,2013-02-08 22:10:00,
2013-02-08 14:15:00,55.4,46.5,29.89,WSW,248,8.0,16.0,72,0.00,,---,0.10,VWS V14.01,2013-02-08 22:15:00,
2013-02-08 14:25:00,54.4,46.0,29.89,SW,233,8.0,16.0,73,0.00,,,0.10,weatherlink.com 1.10,2013-02-08 22:25:00,
2013-02-08 14:30:00,53.8,45.4,29.89,WSW,248,8.0,18.0,73,0.00,,---,0.10,VWS V14.01,2013-02-08 22:30:00,
2013-02-08 14:40:00,52.6,45.0,29.89,West,271,9.0,18.0,74,0.00,,,0.10,weatherlink.com 1.10,2013-02-08 22:40:00,
2013-02-08 14:45:00,52.7,45.4,29.89,West,270,8.0,18.0,76,0.00,,---,0.10,VWS V14.01,2013-02-08 22:45:00,
2013-02-08 14:55:00,53.6,43.0,29.89,WSW,245,5.0,14.0,67,0.00,,,0.10,weatherlink.com 1.10,2013-02-08 22:55:00,
2013-02-08 15:00:00,52.9,42.6,29.89,WSW,248,7.0,16.0,68,0.00,,---,0.10,VWS V14.01,2013-02-08 23:00:00,
2013-02-08 15:10:00,51.8,43.0,29.89,SSE,150,5.0,16.0,71,0.00,,,0.10,weatherlink.com 1.10,2013-02-08 23:10:00,
2013-02-08 15:15:00,51.6,43.2,29.89,SSW,202,6.0,16.0,73,0.00,,---,0.10,VWS V14.01,2013-02-08 23:15:00,
2013-02-08 15:25:00,51.8,43.0,29.89,SW,233,8.0,14.0,71,0.00,,,0.10,weatherlink.com 1.10,2013-02-08 23:25:00,
2013-02-08 15:30:00,51.9,42.1,29.89,WSW,248,6.0,14.0,69,0.00,,---,0.10,VWS V14.01,2013-02-08 23:30:00,
2013-02-08 15:40:00,52.6,43.0,29.88,WSW,246,5.0,13.0,71,0.00,,,0.10,weatherlink.com 1.10,2013-02-08 23:40:00,
2013-02-08 15:45:00,53.3,44.9,29.88,WSW,248,6.0,14.0,73,0.00,,---,0.10,VWS V14.01,2013-02-08 23:45:00,
2013-02-08 15:55:00,53.3,44.0,29.88,South,184,2.0,14.0,70,0.00,,,0.10,weatherlink.com 1.10,2013-02-08 23:55:00,
2013-02-08 16:00:00,53.4,44.2,29.88,SW,225,5.0,14.0,71,0.00,,---,0.10,VWS V14.01,2013-02-09 00:00:00,
2013-02-08 16:10:00,53.0,43.0,29.88,SW,226,5.0,13.0,69,0.00,,,0.10,weatherlink.com 1.10,2013-02-09 00:10:00,
2013-02-08 16:15:00,52.4,43.3,29.88,WSW,248,6.0,13.0,71,0.00,,---,0.10,VWS V14.01,2013-02-09 00:15:00,
2013-02-08 16:25:00,51.8,43.0,29.88,SSW,201,3.0,13.0,72,0.00,,,0.10,weatherlink.com 1.10,2013-02-09 00:25:00,
2013-02-08 16:30:00,51.9,43.2,29.88,SW,225,5.0,13.0,72,0.00,,---,0.10,VWS V14.01,2013-02-09 00:30:00,
2013-02-08 16:40:00,51.7,42.0,29.88,WSW,246,2.0,15.0,70,0.00,,,0.10,weatherlink.com 1.10,2013-02-09 00:40:00,
2013-02-08 16:45:00,51.5,42.4,29.88,WSW,248,5.0,15.0,71,0.00,,---,0.10,VWS V14.01,2013-02-09 00:45:00,
2013-02-08 16:55:00,51.7,43.0,29.88,SW,227,3.0,11.0,71,0.00,,,0.10,weatherlink.com 1.10,2013-02-09 00:55:00,
2013-02-08 17:00:00,51.2,41.4,29.88,WSW,248,5.0,16.0,69,0.00,,---,0.10,VWS V14.01,2013-02-09 01:00:00,
2013-02-08 17:10:00,50.4,41.0,29.88,SSW,204,7.0,13.0,71,0.00,,,0.10,weatherlink.com 1.10,2013-02-09 01:10:00,
2013-02-08 17:15:00,50.1,41.4,29.88,WSW,248,5.0,13.0,72,0.00,,---,0.10,VWS V14.01,2013-02-09 01:15:00,
2013-02-08 17:25:00,49.8,42.0,29.88,WSW,245,1.0,7.0,75,0.00,,,0.10,weatherlink.com 1.10,2013-02-09 01:25:00,
2013-02-08 17:30:00,49.7,42.5,29.88,WSW,248,3.0,9.0,76,0.00,,---,0.10,VWS V14.01,2013-02-09 01:30:00,
2013-02-08 17:40:00,49.2,42.0,29.88,WSW,252,6.0,11.0,77,0.00,,,0.10,weatherlink.com 1.10,2013-02-09 01:40:00,
2013-02-08 17:45:00,48.8,41.6,29.88,WSW,248,3.0,11.0,76,0.00,,---,0.10,VWS V14.01,2013-02-09 01:45:00,
2013-02-08 17:55:00,48.6,42.0,29.88,West,261,2.0,5.0,78,0.00,,,0.10,weatherlink.com 1.10,2013-02-09 01:55:00,
2013-02-08 18:00:00,48.6,42.4,29.88,West,270,2.0,6.0,79,0.00,,---,0.10,VWS V14.01,2013-02-09 02:00:00,
2013-02-08 18:10:00,47.9,43.0,29.88,West,265,0.0,10.0,82,0.01,,,0.11,weatherlink.com 1.10,2013-02-09 02:10:00,
2013-02-08 18:15:00,47.6,42.7,29.88,West,270,2.0,10.0,83,0.01,,---,0.11,VWS V14.01,2013-02-09 02:15:00,
2013-02-08 18:25:00,47.1,43.0,29.88,West,265,0.0,1.0,85,0.01,,,0.11,weatherlink.com 1.10,2013-02-09 02:25:00,
2013-02-08 18:30:00,47.0,43.0,29.88,West,270,0.0,1.0,86,0.01,,---,0.11,VWS V14.01,2013-02-09 02:30:00,
2013-02-08 18:40:00,46.9,43.0,29.88,WSW,254,0.0,5.0,87,0.01,,,0.11,weatherlink.com 1.10,2013-02-09 02:40:00,
2013-02-08 18:45:00,46.9,43.2,29.88,WSW,248,1.0,5.0,87,0.01,,---,0.11,VWS V14.01,2013-02-09 02:45:00,
2013-02-08 18:55:00,46.7,43.0,29.89,WSW,244,0.0,2.0,87,0.01,,,0.11,weatherlink.com 1.10,2013-02-09 02:55:00,
2013-02-08 19:00:00,46.7,43.3,29.89,WSW,248,0.0,3.0,88,0.01,,---,0.11,VWS V14.01,2013-02-09 03:00:00,
2013-02-08 19:10:00,46.8,44.0,29.89,WSW,244,0.0,4.0,89,0.00,,,0.11,weatherlink.com 1.10,2013-02-09 03:10:00,
2013-02-08 19:15:00,46.9,44.1,29.89,WSW,248,1.0,4.0,90,0.01,,---,0.11,VWS V14.01,2013-02-09 03:15:00,
2013-02-08 19:25:00,46.8,44.0,29.88,WSW,252,0.0,3.0,90,0.01,,,0.12,weatherlink.com 1.10,2013-02-09 03:25:00,
2013-02-08 19:30:00,46.8,44.0,29.88,WSW,248,1.0,3.0,90,0.01,,---,0.12,VWS V14.01,2013-02-09 03:30:00,
2013-02-08 19:40:00,46.7,44.0,29.88,WSW,241,1.0,2.0,90,0.01,,,0.12,weatherlink.com 1.10,2013-02-09 03:40:00,
2013-02-08 19:45:00,46.6,43.8,29.88,WSW,248,0.0,2.0,90,0.01,,---,0.12,VWS V14.01,2013-02-09 03:45:00,
2013-02-08 19:55:00,46.5,44.0,29.88,SW,227,1.0,4.0,91,0.01,,,0.12,weatherlink.com 1.10,2013-02-09 03:55:00,
2013-02-08 20:00:00,46.5,43.7,29.88,SW,225,1.0,4.0,90,0.01,,---,0.12,VWS V14.01,2013-02-09 04:00:00,
2013-02-08 20:10:00,46.2,44.0,29.88,SSW,195,2.0,3.0,90,0.01,,,0.12,weatherlink.com 1.10,2013-02-09 04:10:00,
2013-02-08 20:15:00,46.2,43.4,29.88,SW,225,1.0,3.0,90,0.01,,---,0.12,VWS V14.01,2013-02-09 04:15:00,
2013-02-08 20:25:00,46.1,43.0,29.88,SSW,195,0.0,2.0,90,0.00,,,0.12,weatherlink.com 1.10,2013-02-09 04:25:00,
2013-02-08 20:30:00,46.1,43.6,29.88,SSW,202,0.0,2.0,91,0.01,,---,0.12,VWS V14.01,2013-02-09 04:30:00,
2013-02-08 20:40:00,46.0,44.0,29.88,SSW,195,0.0,0.0,91,0.00,,,0.12,weatherlink.com 1.10,2013-02-09 04:40:00,
2013-02-08 20:45:00,46.1,43.6,29.89,SSW,202,0.0,1.0,91,0.00,,---,0.12,VWS V14.01,2013-02-09 04:45:00,
2013-02-08 20:55:00,45.9,44.0,29.89,SSW,195,0.0,0.0,91,0.00,,,0.12,weatherlink.com 1.10,2013-02-09 04:55:00,
2013-02-08 21:00:00,45.8,43.3,29.89,SSW,202,0.0,1.0,91,0.00,,---,0.12,VWS V14.01,2013-02-09 05:00:00,
2013-02-08 21:10:00,45.5,43.0,29.89,SSW,195,0.0,0.0,91,0.00,,,0.12,weatherlink.com 1.10,2013-02-09 05:10:00,
2013-02-08 21:15:00,45.4,42.9,29.89,SSW,202,0.0,0.0,91,0.00,,---,0.12,VWS V14.01,2013-02-09 05:15:00,
2013-02-08 21:25:00,45.0,43.0,29.89,SSW,195,0.0,0.0,91,0.00,,,0.12,weatherlink.com 1.10,2013-02-09 05:25:00,
2013-02-08 21:30:00,44.8,42.0,29.89,SSW,202,0.0,0.0,90,0.00,,---,0.12,VWS V14.01,2013-02-09 05:30:00,
2013-02-08 21:40:00,44.3,42.0,29.90,SSW,195,0.0,0.0,90,0.00,,,0.12,weatherlink.com 1.10,2013-02-09 05:40:00,
2013-02-08 21:45:00,44.1,41.4,29.89,SSW,202,0.0,0.0,90,0.00,,---,0.12,VWS V14.01,2013-02-09 05:45:00,
2013-02-08 21:55:00,43.6,41.0,29.89,SSW,195,0.0,0.0,91,0.00,,,0.12,weatherlink.com 1.10,2013-02-09 05:55:00,
2013-02-08 22:00:00,43.4,41.2,29.90,SSW,202,0.0,1.0,92,0.00,,---,0.12,VWS V14.01,2013-02-09 06:00:00,
2013-02-08 22:10:00,43.1,41.0,29.90,SSW,195,0.0,0.0,91,0.00,,,0.12,weatherlink.com 1.10,2013-02-09 06:10:00,
2013-02-08 22:15:00,42.9,40.7,29.90,SSW,202,0.0,0.0,92,0.00,,---,0.12,VWS V14.01,2013-02-09 06:15:00,
2013-02-08 22:25:00,42.4,40.0,29.90,SSW,195,0.0,0.0,92,0.00,,,0.12,weatherlink.com 1.10,2013-02-09 06:25:00,
2013-02-08 22:30:00,42.2,40.0,29.90,SSW,202,0.0,0.0,92,0.00,,---,0.12,VWS V14.01,2013-02-09 06:30:00,
2013-02-08 22:40:00,41.8,40.0,29.90,SSW,195,0.0,0.0,93,0.00,,,0.12,weatherlink.com 1.10,2013-02-09 06:40:00,
2013-02-08 22:45:00,41.8,39.9,29.91,SSW,202,0.0,0.0,93,0.00,,---,0.12,VWS V14.01,2013-02-09 06:45:00,
2013-02-08 22:55:00,41.7,40.0,29.91,SSW,195,0.0,1.0,94,0.00,,,0.12,weatherlink.com 1.10,2013-02-09 06:55:00,
2013-02-08 23:00:00,41.6,40.0,29.91,SSW,202,0.0,1.0,94,0.00,,---,0.12,VWS V14.01,2013-02-09 07:00:00,
2013-02-08 23:10:00,41.6,40.0,29.92,SSW,195,0.0,0.0,95,0.00,,,0.12,weatherlink.com 1.10,2013-02-09 07:10:00,
2013-02-08 23:15:00,41.7,40.4,29.92,SSW,202,0.0,0.0,95,0.00,,---,0.12,VWS V14.01,2013-02-09 07:15:00,
2013-02-08 23:25:00,41.6,40.0,29.92,SSW,195,0.0,1.0,95,0.00,,,0.12,weatherlink.com 1.10,2013-02-09 07:25:00,
2013-02-08 23:30:00,41.6,40.3,29.92,SSW,202,0.0,1.0,95,0.00,,---,0.12,VWS V14.01,2013-02-09 07:30:00,
2013-02-08 23:40:00,41.2,40.0,29.92,SSW,195,0.0,0.0,94,0.00,,,0.12,weatherlink.com 1.10,2013-02-09 07:40:00,
2013-02-08 23:45:00,41.0,39.4,29.92,SSW,202,0.0,0.0,94,0.00,,---,0.12,VWS V14.01,2013-02-09 07:45:00,
2013-02-08 23:55:00,40.7,39.0,29.92,SSW,195,0.0,0.0,94,0.00,,,0.12,weatherlink.com 1.10,2013-02-09 07:55:00,